This is the latest recevied weather packets stored in our database for station/object KC5TIL. If no packets are shown the sender has not sent any weather packets the latest 1 day(s).
| Time | Temp. | Humidity | Pressure | Rain* | Wind** | Luminosity | Snow |
|---|---|---|---|---|---|---|---|
| 1778017949 | 33.89° C | 46% | 1004.1 hPa | 0 mm | 0.45 m/s, 149° | 534 W/m² | - |
| 1778017647 | 33.89° C | 45% | 1004.2 hPa | 0 mm | 0.45 m/s, 335° | 500 W/m² | - |
| 1778017344 | 33.89° C | 44% | 1004.2 hPa | 0 mm | 0.45 m/s, 158° | 534 W/m² | - |
| 1778017041 | 33.89° C | 45% | 1004.4 hPa | 0 mm | 0.45 m/s, 148° | 537 W/m² | - |
| 1778016739 | 33.89° C | 45% | 1004.4 hPa | 0 mm | 0.45 m/s, 144° | 562 W/m² | - |
| 1778016434 | 33.89° C | 47% | 1004.3 hPa | 0 mm | 0 m/s | 452 W/m² | - |
| 1778016132 | 33.33° C | 47% | 1004.4 hPa | 0 mm | 0.45 m/s, 92° | 373 W/m² | - |
| 1778015828 | 33.33° C | 46% | 1004.5 hPa | 0 mm | 0.45 m/s, 112° | 301 W/m² | - |
| 1778015526 | 33.33° C | 45% | 1004.6 hPa | 0 mm | 0.45 m/s, 134° | 267 W/m² | - |
| 1778015222 | 33.33° C | 45% | 1004.7 hPa | 0 mm | 0.45 m/s, 192° | 508 W/m² | - |
| 1778014919 | 33.89° C | 47% | 1004.7 hPa | 0 mm | 0.45 m/s, 154° | 333 W/m² | - |
| 1778014617 | 33.33° C | 47% | 1004.9 hPa | 0 mm | 0.45 m/s, 143° | 683 W/m² | - |
| 1778014315 | 33.89° C | 48% | 1005 hPa | 0 mm | 0.45 m/s, 111° | 304 W/m² | - |
| 1778014011 | 33.89° C | 48% | 1005.3 hPa | 0 mm | 1.34 m/s, 251° | 645 W/m² | - |
| 1778013709 | 33.33° C | 52% | 1005 hPa | 0 mm | 0.45 m/s, 128° | 520 W/m² | - |
| 1778013406 | 33.89° C | 50% | 1004.9 hPa | 0 mm | 0.89 m/s, 224° | 621 W/m² | - |
| 1778013102 | 33.33° C | 51% | 1005 hPa | 0 mm | 0.45 m/s, 158° | 724 W/m² | - |
| 1778012798 | 32.78° C | 51% | 1005.2 hPa | 0 mm | 0.45 m/s, 180° | 791 W/m² | - |
| 1778012494 | 32.78° C | 52% | 1005.4 hPa | 0 mm | 0.89 m/s, 184° | 833 W/m² | - |
| 1778012185 | 32.22° C | 53% | 1005.5 hPa | 0 mm | 0.45 m/s, 160° | 833 W/m² | - |
| 1778011878 | 32.22° C | 54% | 1005.5 hPa | 0 mm | 0.89 m/s, 189° | 349 W/m² | - |
| 1778011575 | 32.22° C | 54% | 1005.4 hPa | 0 mm | 0.45 m/s, 116° | 354 W/m² | - |
| 1778011272 | 32.22° C | 55% | 1005.2 hPa | 0 mm | 0.89 m/s, 147° | 716 W/m² | - |
| 1778010968 | 32.22° C | 54% | 1005.6 hPa | 0 mm | 0.89 m/s, 203° | 437 W/m² | - |
| 1778010666 | 32.78° C | 53% | 1005.4 hPa | 0 mm | 0.45 m/s, 225° | 680 W/m² | - |
* Rain latest hour (hover to see other rain measurements)
** Current wind speed in m/s (hover to see current wind gust speed)